Powrót do katalogu

STARLINK-32358

AktywnyŁącznośćVLEO
NORAD 61531·PAYLOAD·🇺🇸 United States

Wystrzelony Oct 15, 2024 z Cape Canaveral Space Force Station

Loading…

Następne Przeloty (najbliższe 24 godziny)

TLE

ŚwieżeSource: CelesTrak SupGP

Epoka: Sep 15, 2026, 03:21 UTC

1 61531C 24183Y   26258.14006944  .00065935  00000+0  19486-2 0  2580
2 61531  53.1589 333.0125 0001357  84.2939 186.4309 15.34348270    16

Śledź STARLINK-32358 w czasie rzeczywistym z AllMySat

Download on the App Store